Powrót do katalogu

CZ-6A DEB

AktywnySSO
NORAD 54386·DEBRIS·🇨🇳 China

Wystrzelony Nov 11, 2022 z Taiyuan Satellite Launch Center

Loading…

Następne Przeloty (najbliższe 24 godziny)

TLE

ŚwieżeSource: Space-Track

Epoka: Sep 14, 2026, 08:56 UTC

1 54386U 22151DJ  26257.37261192  .00000703  00000-0  49064-3 0  9996
2 54386  98.9408 235.0003 0127031 200.2650 159.3446 13.98022588195203

Śledź CZ-6A DEB w czasie rzeczywistym z AllMySat

Download on the App Store